GW0378 Weather Reports


Display with metric or nautical units.
time (UTC)temp
F
wind
direction
speed
MPH
gust
MPH
rain 1hr
in
rain 24hr
in
rain mn
in
humidity
%
barometer
mb
20260510165029 61 346 3.0 3.0 0.00 0.00 0.00 48 1019.1
20260510164526 59 184 2.0 3.0 0.00 0.00 0.00 49 1019.6
20260510164022 60 266 2.0 4.0 0.00 0.00 0.00 50 1019.5
20260510163513 58 322 2.0 4.0 0.00 0.00 0.00 54 1019.6
20260510163009 58 307 0.0 4.0 0.00 0.00 0.00 52 1019.5
20260510162504 57 31 3.0 5.0 0.00 0.00 0.00 53 1019.7
20260510162001 57 346 3.0 5.0 0.00 0.00 0.00 53 1019.6
20260510161457 57 290 2.0 3.0 0.00 0.00 0.00 54 1019.7
20260510160954 56 12 0.0 3.0 0.00 0.00 0.00 56 1019.7
20260510160451 56 262 1.0 4.0 0.00 0.00 0.00 54 1019.7
20260510155949 56 63 2.0 3.0 0.00 0.00 0.00 55 1019.7
20260510155447 54 270 0.0 4.0 0.00 0.00 0.00 57 1019.6
20260510154943 54 300 3.0 5.0 0.00 0.00 0.00 58 1020.2
20260510154439 54 347 3.0 6.0 0.00 0.00 0.00 57 1019.6
20260510153938 54 313 3.0 4.0 0.00 0.00 0.00 58 1020.0
20260510153435 53 279 3.0 5.0 0.00 0.00 0.00 59 1020.0
20260510152931 53 270 0.0 3.0 0.00 0.00 0.00 59 1020.0
20260510152429 53 282 4.0 5.0 0.00 0.00 0.00 59 1020.1
20260510151925 53 329 3.0 4.0 0.00 0.00 0.00 59 1020.3
20260510151422 52 297 0.0 5.0 0.00 0.00 0.00 59 1020.1
20260510150918 52 16 4.0 5.0 0.00 0.00 0.00 59 1020.2
20260510150414 53 14 2.0 3.0 0.00 0.00 0.00 58 1020.2
20260510145910 54 116 3.0 4.0 0.00 0.00 0.00 56 1020.5
20260510145407 53 33 2.0 5.0 0.00 0.00 0.00 60 1020.5
20260510144903 52 36 2.0 2.0 0.00 0.00 0.00 60 1020.5
20260510144400 51 6 3.0 4.0 0.00 0.00 0.00 64 1020.6
20260510143855 50 19 2.0 4.0 0.00 0.00 0.00 66 1020.5
20260510143351 50 15 0.0 3.0 0.00 0.00 0.00 66 1020.3
20260510142848 51 29 0.0 3.0 0.00 0.00 0.00 65 1020.7
20260510142345 48 29 0.0 1.0 0.00 0.00 0.00 70 1020.3
20260510141842 48 344 2.0 4.0 0.00 0.00 0.00 71 1020.6
20260510141339 48 278 1.0 2.0 0.00 0.00 0.00 69 1020.7
20260510140836 48 283 2.0 4.0 0.00 0.00 0.00 70 1020.3
20260510140332 48 165 0.0 3.0 0.00 0.00 0.00 68 1020.5
20260510135825 46 54 1.0 3.0 0.00 0.00 0.00 71 1020.5
20260510135321 46 53 2.0 3.0 0.00 0.00 0.00 72 1020.6
20260510134819 46 79 2.0 5.0 0.00 0.00 0.00 72 1020.5
20260510134316 46 72 2.0 6.0 0.00 0.00 0.00 71 1020.6
20260510133812 46 111 5.0 8.0 0.00 0.00 0.00 71 1020.8
20260510133308 45 99 4.0 6.0 0.00 0.00 0.00 72 1020.7
20260510132803 45 95 5.0 6.0 0.00 0.00 0.00 72 1020.8
20260510132305 45 113 6.0 7.0 0.00 0.00 0.00 73 1020.6
20260510131758 44 118 3.0 6.0 0.00 0.00 0.00 73 1020.8
20260510131256 44 116 6.0 7.0 0.00 0.00 0.00 73 1020.6
20260510130752 44 90 3.0 7.0 0.00 0.00 0.00 74 1020.5
20260510130250 43 134 3.0 9.0 0.00 0.00 0.00 75 1020.7
20260510125746 43 107 5.0 7.0 0.00 0.00 0.00 75 1020.6
20260510125242 43 72 5.0 9.0 0.00 0.00 0.00 75 1020.7
20260510124739 43 103 4.0 7.0 0.00 0.00 0.00 75 1020.5
20260510124237 42 139 2.0 5.0 0.00 0.00 0.00 77 1020.5
20260510123731 43 130 5.0 6.0 0.00 0.00 0.00 76 1020.7
20260510123228 43 111 3.0 7.0 0.00 0.00 0.00 75 1020.5
20260510122724 43 130 4.0 7.0 0.00 0.00 0.00 75 1020.6
20260510122220 42 111 4.0 4.0 0.00 0.00 0.00 77 1020.3
20260510121717 42 112 3.0 6.0 0.00 0.00 0.00 77 1020.5
20260510121215 42 135 3.0 8.0 0.00 0.00 0.00 77 1020.3
20260510120711 42 117 4.0 7.0 0.00 0.00 0.00 77 1020.7
20260510120208 43 110 4.0 7.0 0.00 0.00 0.00 76 1020.6
20260510115704 43 123 3.0 6.0 0.00 0.00 0.00 75 1020.7
20260510115202 43 90 3.0 4.0 0.00 0.00 0.00 76 1020.7
20260510114657 43 156 2.0 7.0 0.00 0.00 0.00 74 1020.8
20260510114154 43 125 4.0 6.0 0.00 0.00 0.00 76 1020.5
20260510113649 44 105 3.0 6.0 0.00 0.00 0.00 74 1020.9
20260510113146 44 94 5.0 8.0 0.00 0.00 0.00 74 1020.6
20260510112643 44 113 3.0 7.0 0.00 0.00 0.00 75 1020.8
20260510112140 43 114 4.0 5.0 0.00 0.00 0.00 77 1021.0
20260510111636 43 113 2.0 4.0 0.00 0.00 0.00 78 1021.0
20260510111132 43 117 1.0 3.0 0.00 0.00 0.00 77 1020.8
20260510110628 43 103 2.0 3.0 0.00 0.00 0.00 77 1020.8
20260510110125 44 138 0.0 3.0 0.00 0.00 0.00 76 1020.8
20260510105621 43 90 2.0 2.0 0.00 0.00 0.00 76 1020.9
20260510105115 44 116 3.0 4.0 0.00 0.00 0.00 75 1020.6
20260510104612 44 96 0.0 3.0 0.00 0.00 0.00 74 1020.5
20260510104109 44 120 0.0 2.0 0.00 0.00 0.00 74 1020.6
20260510103606 45 95 2.0 5.0 0.00 0.00 0.00 72 1020.9
20260510103102 45 123 3.0 7.0 0.00 0.00 0.00 72 1020.8
20260510102557 44 85 4.0 6.0 0.00 0.00 0.00 73 1020.8
20260510102053 44 110 4.0 6.0 0.00 0.00 0.00 73 1020.8
20260510101551 44 100 5.0 6.0 0.00 0.00 0.00 74 1020.7
20260510101050 44 103 5.0 5.0 0.00 0.00 0.00 74 1020.7
20260510100545 44 95 4.0 5.0 0.00 0.00 0.00 73 1020.9
20260510100043 44 107 4.0 5.0 0.00 0.00 0.00 73 1020.8
20260510095539 44 112 3.0 3.0 0.00 0.00 0.00 74 1021.0
20260510095038 45 103 3.0 5.0 0.00 0.00 0.00 73 1020.9
20260510094533 45 109 1.0 2.0 0.00 0.00 0.00 73 1020.8
20260510094028 45 119 2.0 3.0 0.00 0.00 0.00 71 1020.7
20260510093524 45 114 0.0 4.0 0.00 0.00 0.00 71 1020.8
20260510093021 45 115 3.0 4.0 0.00 0.00 0.00 71 1020.6
20260510092519 45 105 4.0 4.0 0.00 0.00 0.00 73 1020.7
20260510092018 44 135 2.0 2.0 0.00 0.00 0.00 74 1020.5
20260510091515 44 127 2.0 2.0 0.00 0.00 0.00 73 1020.8
20260510091011 45 96 2.0 2.0 0.00 0.00 0.00 71 1020.3
20260510090509 45 105 2.0 3.0 0.00 0.00 0.00 71 1020.6
20260510090004 45 77 2.0 3.0 0.00 0.00 0.00 71 1020.5
20260510085459 45 123 1.0 2.0 0.00 0.00 0.00 70 1020.5
20260510084955 46 144 0.0 2.0 0.00 0.00 0.00 69 1020.6
20260510084452 46 99 3.0 4.0 0.00 0.00 0.00 69 1020.3
20260510083949 46 83 3.0 3.0 0.00 0.00 0.00 70 1020.3
20260510083445 46 109 2.0 3.0 0.00 0.00 0.00 70 1020.2
20260510082940 48 157 0.0 3.0 0.00 0.00 0.00 67 1020.6
20260510082439 47 250 3.0 4.0 0.00 0.00 0.00 68 1020.8
20260510081938 47 199 3.0 5.0 0.00 0.00 0.00 67 1020.6
20260510081434 48 110 4.0 6.0 0.00 0.00 0.00 65 1020.2
20260510080930 48 114 3.0 9.0 0.00 0.00 0.00 64 1020.6
20260510080429 48 117 4.0 8.0 0.00 0.00 0.00 65 1020.6
20260510075926 47 126 4.0 6.0 0.00 0.00 0.00 66 1020.6
20260510075424 48 109 6.0 7.0 0.00 0.00 0.00 65 1020.6
20260510074920 47 118 7.0 7.0 0.00 0.00 0.00 66 1020.7
20260510074418 48 95 3.0 4.0 0.00 0.00 0.00 66 1020.6
20260510073914 48 107 3.0 4.0 0.00 0.00 0.00 66 1020.7
20260510073409 48 99 3.0 5.0 0.00 0.00 0.00 65 1020.5
20260510072906 49 97 3.0 3.0 0.00 0.00 0.00 64 1020.6
20260510072403 47 147 2.0 3.0 0.00 0.00 0.00 66 1020.8
20260510071858 48 110 2.0 3.0 0.00 0.00 0.00 65 1020.6
20260510071355 48 126 0.0 1.0 0.00 0.00 0.00 65 1020.6
20260510070854 49 114 1.0 3.0 0.00 0.00 0.00 64 1020.5
20260510070350 48 157 0.0 1.0 0.00 0.00 0.00 64 1020.5
20260510065850 48 144 2.0 3.0 0.00 0.00 0.00 64 1020.2
20260510065347 48 105 3.0 4.0 0.00 0.00 0.00 64 1020.2
20260510064844 49 112 2.0 3.0 0.00 0.00 0.00 64 1020.3
20260510064342 48 102 3.0 4.0 0.00 0.00 0.00 65 1020.2
20260510063838 49 121 3.0 3.0 0.00 0.00 0.00 62 1020.3
20260510063334 51 117 5.0 5.0 0.00 0.00 0.00 59 1020.6
20260510062831 50 101 3.0 4.0 0.00 0.00 0.00 61 1020.5
20260510062327 50 103 3.0 4.0 0.00 0.00 0.00 60 1020.3
20260510061822 49 101 2.0 4.0 0.00 0.00 0.00 62 1020.5
20260510061319 49 116 4.0 5.0 0.00 0.00 0.00 63 1020.2
20260510060815 50 113 2.0 5.0 0.00 0.00 0.00 62 1020.3
20260510060313 51 114 4.0 8.0 0.00 0.00 0.00 60 1020.2
20260510055809 51 108 6.0 6.0 0.00 0.00 0.00 59 1020.5
20260510055308 51 107 3.0 9.0 0.00 0.00 0.00 58 1020.3
20260510054807 52 93 3.0 6.0 0.00 0.00 0.00 58 1020.5
20260510054303 51 106 4.0 5.0 0.00 0.00 0.00 59 1020.1
20260510053758 51 108 3.0 4.0 0.00 0.00 0.00 60 1020.2
20260510053254 50 95 3.0 4.0 0.00 0.00 0.00 60 1020.3
20260510052750 50 112 3.0 3.0 0.00 0.00 0.00 61 1020.2
20260510052246 51 101 3.0 5.0 0.00 0.00 0.00 59 1020.0
20260510051742 51 101 2.0 4.0 0.00 0.00 0.00 60 1019.9
20260510051239 51 121 2.0 3.0 0.00 0.00 0.00 59 1020.0
20260510050736 52 101 5.0 5.0 0.00 0.00 0.00 58 1020.0
20260510050233 52 114 4.0 7.0 0.00 0.00 0.00 56 1020.0
20260510045730 52 83 4.0 5.0 0.00 0.00 0.00 56 1020.0
20260510045226 53 104 3.0 5.0 0.00 0.00 0.00 54 1019.8
20260510044723 54 99 3.0 5.0 0.00 0.00 0.00 51 1019.9
20260510044221 54 85 4.0 7.0 0.00 0.00 0.00 51 1019.9
20260510043715 54 107 4.0 5.0 0.00 0.00 0.00 53 1019.7
20260510043213 55 119 4.0 7.0 0.00 0.00 0.00 50 1019.7
20260510042710 55 103 5.0 10.0 0.00 0.00 0.00 50 1019.9
20260510042206 55 104 5.0 8.0 0.00 0.00 0.00 52 1019.8
20260510041703 55 95 6.0 7.0 0.00 0.00 0.00 52 1019.8
20260510041201 55 120 4.0 7.0 0.00 0.00 0.00 52 1019.6
20260510040657 55 119 5.0 7.0 0.00 0.00 0.00 52 1019.6
20260510040154 55 114 6.0 9.0 0.00 0.00 0.00 51 1019.5
20260510035649 55 118 10.0 10.0 0.00 0.00 0.00 51 1019.1
20260510035145 56 109 5.0 7.0 0.00 0.00 0.00 49 1019.3
20260510034642 57 90 5.0 7.0 0.00 0.00 0.00 49 1019.3
20260510034139 57 100 3.0 7.0 0.00 0.00 0.00 48 1019.2
20260510033635 57 95 3.0 9.0 0.00 0.00 0.00 48 1019.0
20260510033133 57 110 4.0 8.0 0.00 0.00 0.00 49 1018.9
20260510032629 57 105 6.0 10.0 0.00 0.00 0.00 48 1018.9
20260510032125 58 112 4.0 11.0 0.00 0.00 0.00 47 1019.2
20260510031620 58 80 3.0 9.0 0.00 0.00 0.00 47 1018.9
20260510031117 59 99 5.0 9.0 0.00 0.00 0.00 47 1018.9
20260510030611 60 112 4.0 8.0 0.00 0.00 0.00 45 1019.0
20260510030109 60 121 3.0 6.0 0.00 0.00 0.00 46 1018.8
20260510025606 60 110 5.0 8.0 0.00 0.00 0.00 46 1018.9
20260510025104 60 109 2.0 5.0 0.00 0.00 0.00 45 1018.8
20260510024600 61 99 3.0 6.0 0.00 0.00 0.00 44 1018.8
20260510024056 62 121 3.0 5.0 0.00 0.00 0.00 43 1018.7
20260510023553 62 144 2.0 5.0 0.00 0.00 0.00 42 1018.8
20260510023050 63 106 2.0 3.0 0.00 0.00 0.00 42 1018.5
20260510022549 63 106 3.0 3.0 0.00 0.00 0.00 41 1018.6
20260510022044 64 114 1.0 1.0 0.00 0.00 0.00 40 1018.6
20260510021541 66 198 0.0 0.0 0.00 0.00 0.00 40 1018.3
20260510021038 67 195 0.0 3.0 0.00 0.00 0.00 36 1018.7
20260510020532 68 251 0.0 3.0 0.00 0.00 0.00 33 1018.3
20260510020028 69 270 1.0 3.0 0.00 0.00 0.00 32 1018.7
20260510015524 68 290 2.0 3.0 0.00 0.00 0.00 31 1018.5
20260510015020 69 278 3.0 3.0 0.00 0.00 0.00 31 1018.3
20260510014517 69 278 0.0 3.0 0.00 0.00 0.00 31 1018.3
20260510014014 69 270 2.0 4.0 0.00 0.00 0.00 31 1018.5
20260510013508 71 247 2.0 3.0 0.00 0.00 0.00 30 1018.5
20260510013005 70 279 0.0 2.0 0.00 0.00 0.00 29 1018.1
20260510012459 70 252 2.0 4.0 0.00 0.00 0.00 30 1018.2
20260510011954 71 8 0.0 1.0 0.00 0.00 0.00 28 1018.2
20260510011449 72 315 2.0 2.0 0.00 0.00 0.00 28 1018.5
20260510010946 71 123 2.0 4.0 0.00 0.00 0.00 28 1018.2
20260510010443 72 7 1.0 3.0 0.00 0.00 0.00 30 1018.5
20260510005940 71 315 3.0 3.0 0.00 0.00 0.00 29 1018.0
20260510005436 70 245 6.0 6.0 0.00 0.00 0.00 30 1018.5
20260510004933 71 246 3.0 3.0 0.00 0.00 0.00 29 1018.1
20260510004430 71 274 3.0 5.0 0.00 0.00 0.00 29 1018.3
20260510003929 71 254 3.0 5.0 0.00 0.00 0.00 29 1018.3
20260510003425 72 258 2.0 5.0 0.00 0.00 0.00 29 1018.1
20260510002924 72 236 3.0 4.0 0.00 0.00 0.00 29 1018.2
20260510002422 71 307 3.0 8.0 0.00 0.00 0.00 31 1018.2
20260510001918 71 323 2.0 5.0 0.00 0.00 0.00 31 1018.2
20260510001416 70 285 4.0 8.0 0.00 0.00 0.00 32 1018.5
20260510000913 71 297 0.0 3.0 0.00 0.00 0.00 29 1018.2
20260510000411 71 257 4.0 4.0 0.00 0.00 0.00 30 1018.3
20260509235905 70 328 3.0 5.0 0.00 0.00 0.00 29 1018.5
20260509235403 70 0 2.0 8.0 0.00 0.00 0.00 30 1018.2
20260509234858 71 10 3.0 4.0 0.00 0.00 0.00 31 1018.1
20260509234356 71 283 0.0 9.0 0.00 0.00 0.00 30 1018.2
20260509233854 72 234 3.0 7.0 0.00 0.00 0.00 31 1018.2
20260509233351 71 282 6.0 7.0 0.00 0.00 0.00 31 1018.5
20260509232846 71 79 5.0 5.0 0.00 0.00 0.00 30 1018.3
20260509232345 71 273 3.0 11.0 0.00 0.00 0.00 31 1018.5
20260509231840 70 90 0.0 4.0 0.00 0.00 0.00 30 1018.7
20260509231337 69 94 3.0 4.0 0.00 0.00 0.00 30 1018.3
20260509230835 69 353 6.0 7.0 0.00 0.00 0.00 30 1018.3
20260509230332 70 225 2.0 7.0 0.00 0.00 0.00 30 1018.7
20260509225827 70 347 3.0 5.0 0.00 0.00 0.00 30 1018.8
20260509225324 71 15 0.0 5.0 0.00 0.00 0.00 32 1018.8
20260509224821 70 180 0.0 8.0 0.00 0.00 0.00 30 1019.0
20260509224316 69 16 0.0 3.0 0.00 0.00 0.00 32 1019.0
20260509223813 70 282 9.0 9.0 0.00 0.00 0.00 32 1019.0
20260509223310 69 310 4.0 8.0 0.00 0.00 0.00 35 1019.1
20260509222807 71 270 3.0 9.0 0.00 0.00 0.00 33 1018.9
20260509222306 71 234 0.0 5.0 0.00 0.00 0.00 35 1019.0
20260509221758 69 141 3.0 8.0 0.00 0.00 0.00 32 1019.0
20260509221256 69 46 4.0 5.0 0.00 0.00 0.00 31 1019.0
20260509220751 69 319 0.0 6.0 0.00 0.00 0.00 34 1019.1
20260509220248 69 343 4.0 7.0 0.00 0.00 0.00 33 1019.1
20260509215743 69 225 3.0 8.0 0.00 0.00 0.00 32 1019.1
20260509215240 68 267 4.0 7.0 0.00 0.00 0.00 33 1019.3
20260509214737 69 323 11.0 12.0 0.00 0.00 0.00 34 1019.5
20260509214234 69 243 3.0 7.0 0.00 0.00 0.00 35 1019.2
20260509213731 68 338 3.0 9.0 0.00 0.00 0.00 34 1019.7
20260509213226 68 357 3.0 7.0 0.00 0.00 0.00 34 1019.5
20260509212724 69 347 0.0 4.0 0.00 0.00 0.00 33 1019.6
20260509212221 68 96 2.0 8.0 0.00 0.00 0.00 34 1019.3
20260509211717 69 346 4.0 6.0 0.00 0.00 0.00 34 1019.8
20260509211214 69 306 0.0 3.0 0.00 0.00 0.00 34 1019.6
20260509210710 68 282 2.0 4.0 0.00 0.00 0.00 36 1019.7
20260509210208 68 262 4.0 7.0 0.00 0.00 0.00 36 1019.7
20260509205707 67 252 4.0 8.0 0.00 0.00 0.00 35 1019.5
20260509205207 68 337 3.0 5.0 0.00 0.00 0.00 34 1019.7
20260509204703 67 198 0.0 7.0 0.00 0.00 0.00 35 1019.6
20260509204159 68 314 5.0 7.0 0.00 0.00 0.00 36 1019.7
20260509203655 66 15 6.0 12.0 0.00 0.00 0.00 34 1019.9
20260509203154 66 190 0.0 5.0 0.00 0.00 0.00 34 1019.9
20260509202649 66 292 4.0 12.0 0.00 0.00 0.00 34 1020.0
20260509202144 67 17 6.0 8.0 0.00 0.00 0.00 35 1019.9
20260509201640 67 326 3.0 5.0 0.00 0.00 0.00 35 1019.9
20260509201137 66 258 3.0 8.0 0.00 0.00 0.00 36 1020.1
20260509200633 67 301 5.0 5.0 0.00 0.00 0.00 37 1020.0
20260509200129 67 237 2.0 5.0 0.00 0.00 0.00 39 1019.9
20260509195625 65 60 3.0 11.0 0.00 0.00 0.00 35 1020.0
20260509195120 66 318 3.0 10.0 0.00 0.00 0.00 36 1019.9
20260509194619 65 6 1.0 9.0 0.00 0.00 0.00 35 1020.1
20260509194117 64 203 0.0 11.0 0.00 0.00 0.00 36 1020.1
20260509193612 65 261 0.0 5.0 0.00 0.00 0.00 36 1019.9
20260509193108 65 338 3.0 4.0 0.00 0.00 0.00 36 1020.2
20260509192605 63 180 0.0 7.0 0.00 0.00 0.00 36 1020.2
20260509192100 64 61 5.0 7.0 0.00 0.00 0.00 36 1020.3
20260509191555 64 43 4.0 6.0 0.00 0.00 0.00 37 1020.5
20260509191051 64 290 2.0 5.0 0.00 0.00 0.00 39 1020.3
20260509190548 64 330 5.0 6.0 0.00 0.00 0.00 39 1020.3
20260509190046 64 300 2.0 5.0 0.00 0.00 0.00 37 1020.5
20260509185543 64 268 6.0 6.0 0.00 0.00 0.00 37 1020.7
20260509185039 64 288 2.0 7.0 0.00 0.00 0.00 38 1020.3
20260509184538 64 48 2.0 4.0 0.00 0.00 0.00 36 1020.3
20260509184033 64 180 1.0 4.0 0.00 0.00 0.00 35 1020.6
20260509183529 62 207 3.0 5.0 0.00 0.00 0.00 36 1020.6
20260509183025 62 165 0.0 6.0 0.00 0.00 0.00 37 1020.6
20260509182521 62 315 4.0 8.0 0.00 0.00 0.00 38 1020.6
20260509182019 62 308 5.0 5.0 0.00 0.00 0.00 39 1020.5
20260509181517 62 274 5.0 7.0 0.00 0.00 0.00 39 1020.5
20260509181014 64 296 3.0 3.0 0.00 0.00 0.00 37 1020.6
20260509180509 62 207 3.0 4.0 0.00 0.00 0.00 39 1020.6
20260509180008 63 201 2.0 3.0 0.00 0.00 0.00 38 1020.7
20260509175502 61 245 2.0 3.0 0.00 0.00 0.00 40 1020.7
20260509174959 60 340 3.0 6.0 0.00 0.00 0.00 39 1020.9
20260509174456 61 17 3.0 3.0 0.00 0.00 0.00 38 1020.8
20260509173950 60 226 6.0 7.0 0.00 0.00 0.00 39 1021.0
20260509173445 60 0 3.0 7.0 0.00 0.00 0.00 39 1021.0
20260509172942 60 341 2.0 4.0 0.00 0.00 0.00 41 1020.7
20260509172439 59 285 3.0 7.0 0.00 0.00 0.00 39 1020.9
20260509171934 60 307 5.0 5.0 0.00 0.00 0.00 42 1020.8
20260509171431 60 274 2.0 6.0 0.00 0.00 0.00 39 1020.7
20260509170927 60 337 3.0 6.0 0.00 0.00 0.00 39 1021.0
20260509170423 59 270 0.0 5.0 0.00 0.00 0.00 39 1020.9
20260509165918 58 293 3.0 4.0 0.00 0.00 0.00 43 1020.9
20260509165413 59 300 2.0 6.0 0.00 0.00 0.00 40 1020.9